Retour au catalogue

CZ-6A DEB

ActifPO
NORAD 55537·DEBRIS·🇨🇳 China

Lancé Nov 11, 2022 depuis Taiyuan Satellite Launch Center

Loading…

Prochains Passages (prochaines 24 heures)

TLE

FraisSource: Space-Track

Époque: Sep 13, 2026, 15:45 UTC

1 55537U 22151YK  26256.65655442  .00008545  00000-0  12581-2 0  9995
2 55537  98.6211 327.3879 0063821   9.3950 350.8434 14.74266432197844

Suivez CZ-6A DEB en temps réel avec AllMySat

Download on the App Store